Home > Weather > Ostrava > Past weeks

Flag for Czech Republic Weather for the Past 2 Weeks in Ostrava, Czech Republic

Now
36 °F

Passing clouds.


Feels Like: 27 °F
Forecast: 35 / 46 °F
Wind: 14 mph from Southwest

Location: Ostrava / Mosnov

Current Time: Feb 6, 2016 at 12:17:34 AM

Latest Report: Feb 5, 2016 at 11:30 PM


Visibility: N/A

Pressure: 30.27 "Hg

Humidity: 65%

Dew point: 25 °F

Location of OstravaLocation

Historic Weather in Ostrava — Graph

°F

Ostrava Temperature Yesterday

Maximum temperature yesterday: 37 °F (at 12:00 PM)
Minimum temperature yesterday: 30 °F (at 8:00 PM)
Average temperature yesterday: 34 °F

High & Low Weather Summary for the Past Weeks

 TemperatureHumidityPressure
High52 °F (Jan 28, 5:30 AM)100% (Jan 24, 5:30 AM)30.57 "Hg (Jan 24, 5:30 AM)
Low5 °F (Jan 22, 2:00 AM)53% (Jan 31, 1:00 PM)29.68 "Hg (Jan 31, 3:30 AM)
Average37 °F82%30.18 "Hg
* Reported Jan 21 11:00 PM — Feb 5 11:00 PM, Ostrava, Weather by CustomWeather, © 2016

Note: Actual official high and low records may vary slightly from our data, if they occured in-between our weather recording intervals... More about our weather records

Advertising

Ostrava Weather History for the Previous 24 Hours

 ConditionsComfort  
Time TempWeatherWind HumidityBarometerVisibility
11:00 PM
Fri, Feb 5
36 °FPassing clouds.14 mph65%30.27 "HgN/A
10:30 PM36 °FPassing clouds.7 mph70%30.27 "HgN/A
10:00 PM34 °FClear.7 mph75%30.27 "Hg10 mi
9:30 PM34 °FPassing clouds.3 mph70%30.27 "HgN/A
9:00 PM32 °FClear.2 mph75%30.27 "Hg10 mi
8:30 PM30 °FClear.3 mph80%30.30 "Hg10 mi
8:00 PM30 °FClear.2 mph75%30.30 "Hg10 mi
7:30 PM32 °FClear.6 mph75%30.30 "Hg10 mi
7:00 PM32 °FPassing clouds.7 mph75%30.30 "HgN/A
6:30 PM34 °FClear.7 mph81%30.30 "Hg10 mi
6:00 PM34 °FClear.6 mph81%30.30 "Hg10 mi
5:30 PM34 °FClear.5 mph87%30.30 "Hg10 mi
5:00 PM34 °FClear.5 mph87%30.27 "Hg10 mi
4:30 PM36 °FPassing clouds.3 mph81%30.27 "HgN/A
4:00 PM36 °FSunny.3 mph81%30.30 "Hg10 mi
3:30 PM37 °FBroken clouds.3 mph81%30.27 "HgN/A
3:00 PM37 °FPartly sunny.2 mph75%30.27 "HgN/A
2:30 PM37 °FScattered clouds.5 mph75%30.27 "HgN/A
2:00 PM37 °FPassing clouds.8 mph75%30.27 "HgN/A
1:30 PM37 °FLight rain. Partly sunny.8 mph70%30.30 "HgN/A
1:00 PM37 °FLight snow. Partly sunny.9 mph81%30.30 "HgN/A
12:30 PM37 °FLight snow. Broken clouds.7 mph75%30.30 "HgN/A
12:00 PM37 °FLight snow. Partly sunny.5 mph75%30.30 "HgN/A
11:30 AM36 °FBroken clouds.5 mph87%30.30 "HgN/A
11:00 AM36 °FBroken clouds.7 mph81%30.30 "HgN/A
10:30 AM36 °FPassing clouds.6 mph81%30.30 "HgN/A
10:00 AM34 °FPartly sunny.3 mph87%30.30 "HgN/A
9:30 AM36 °FPassing clouds.2 mph81%30.27 "HgN/A
9:00 AM34 °FPassing clouds.3 mph81%30.27 "HgN/A
8:30 AM32 °FLight snow. Partly sunny.6 mph93%30.27 "Hg3 mi
8:00 AM32 °FPartly sunny.3 mph93%30.24 "HgN/A
7:30 AM32 °FPartly sunny.1 mph93%30.24 "HgN/A
7:00 AM32 °FPassing clouds.1 mph87%30.21 "HgN/A
6:30 AM32 °FOvercast.3 mph93%30.21 "HgN/A
6:00 AM34 °FLight snow. Overcast.7 mph87%30.21 "HgN/A
5:30 AM32 °FOvercast.6 mph93%30.18 "HgN/A
5:00 AM32 °FPassing clouds.6 mph93%30.15 "HgN/A
4:30 AM32 °FPassing clouds.3 mph100%30.15 "HgN/A
4:00 AM32 °FLight snow. Mostly cloudy.5 mph100%30.12 "HgN/A
3:30 AM32 °FSnow. Passing clouds.8 mph100%30.12 "Hg1 mi
3:00 AM32 °FSnow. Low clouds.8 mph100%30.09 "Hg2 mi
2:00 AM34 °FSnow. Overcast.10 mph93%30.07 "Hg2 mi
1:00 AM36 °FLight rain. Overcast.12 mph81%30.07 "HgN/A
12:00 AM36 °FLight snow. Passing clouds.13 mph81%30.07 "HgN/A
Weather by CustomWeather, © 2016

See weather overviewHow to use our weather pages